Location: Warwick
(41.7000°N, 71.4170°W)
Time: 04:21:15
(UTC-04:00)

BREEZE-M DEB (TANK) - Visible Passes

Search period start: 21 April 2015 00:00
Search period end: 01 May 2015 00:00
Orbit: 325 x 15952 km, 49.5° (Epoch: 20 April)

Date Brightness Start Highest point End Pass type
(mag) Time Alt. Az. Time Alt. Az. Time Alt. Az.
21 Apr 6.4 01:37:52 10° WNW 01:50:01 84° SSW 03:20:09 10° SE visible
21 Apr 4.0 20:49:15 10° W 20:52:46 56° NNW 21:04:31 10° ENE visible
22 Apr 6.5 01:48:54 10° WNW 02:01:47 79° SW 03:34:38 10° SSE visible
22 Apr 4.3 21:00:15 10° W 21:04:00 53° N 21:17:04 10° ENE visible
23 Apr 6.6 01:59:56 10° WNW 02:13:35 74° SW 03:48:24 10° SSE visible
23 Apr 4.5 21:11:15 10° W 21:15:16 51° N 21:29:51 10° ENE visible
24 Apr 6.7 02:10:58 10° WNW 02:25:26 70° SW 04:01:29 10° SSE visible
24 Apr 4.7 21:22:12 10° WNW 21:26:31 50° N 21:42:53 10° ENE visible
25 Apr 6.9 02:21:59 10° WNW 02:37:21 65° SW 04:13:52 10° SSE visible
25 Apr 4.8 21:33:08 10° WNW 21:37:45 51° N 21:56:13 10° E visible
26 Apr 7.0 02:33:01 10° WNW 02:49:21 61° SW 04:25:35 10° SSE visible
26 Apr 5.0 21:44:02 10° WNW 21:48:58 52° N 22:09:52 10° E visible
27 Apr 7.1 02:44:04 10° WNW 03:01:27 56° SW 04:36:39 10° S visible
27 Apr 5.1 21:54:54 10° WNW 22:00:10 54° NNE 22:23:53 10° E visible
28 Apr 7.1 02:55:08 10° WNW 03:13:37 52° SW 04:47:01 10° S visible
28 Apr 5.2 22:05:44 10° WNW 22:11:21 56° NNE 22:38:15 10° E visible
29 Apr 7.1 03:06:13 10° WNW 03:25:53 48° SW 04:56:42 10° S visible
29 Apr 5.2 22:16:31 10° WNW 22:22:30 59° NNE 22:52:59 10° E visible
30 Apr 7.2 03:17:22 10° WNW 03:38:17 44° SW 05:05:41 10° S visible
30 Apr 5.3 22:27:16 10° WNW 22:33:38 63° NNE 23:08:02 10° ESE visible
